User: anonymous   Login
Location: Unspecified
(0.0000°N, 0.0000°E)
Time: 07:52:58
(UTC+00:00)
Language:

GEOS 3 - Orbit

View from above orbital plane
View from above orbital plane
View from above satellite
View from above satellite

Ground track
Ground track

The orbit data is extracted from the following two-line orbital elements,

1 07734U 75027A   23088.83344257  .00000004  00000-0  86006-4 0  9997
2 07734 114.9923 295.6224 0014260 310.5237  49.4599 14.18774035482505
Epoch (UTC): 29 March 2023 20:00:09
Eccentricity: 0.0014260
inclination: 114.9923°
perigee height: 819 km
apogee height: 840 km
right ascension of ascending node: 295.6224°
argument of perigee: 310.5237°
revolutions per day: 14.18774035
mean anomaly at epoch: 49.4599°
orbit number at epoch: 48250

The dashed part of the orbit path shows where the satellite is in the earth's shadow,  

DLR